EOS-6 (OCEANSAT-3)

Last updated on Thu Oct 23 2025 00:02:49 GMT+0000 (Coordinated Universal Time)

1 54361U 22158A 25295.49739204 .00000631 00000+0 18552-3 0 9991 2 54361 98.3557 31.8932 0001185 47.4538 312.6754 14.46978260153464
UTC large
Height (km)
Speed (km/s)
/
Latitude / Longitude
Inclination (degrees)
Orbital Period (minutes)
Azimuth
Elevation
Range (km)
Doppler Factor

Next 0 passes for location: London (51.5072 / 0.1276)

Sorry there are no passes over London.